#timestamp,LO_Frequency,Hit,StdDev 
1638680415.7,286047004.3,N
1638680435.6,286047001.3,N
1638680455.4,286047003.8,N
1638680475.2,286047004.1,N
1638680495.1,286047004.4,N
1638680496.0,286047004.4,N
1638680515.8,286047003.8,N
1638680535.7,286047003.7,N
1638680555.5,286047003.9,N
1638680575.3,286047001.8,N
1638680595.2,286047001.6,N
1638680615.0,286047004.3,N
1638680615.9,286047004.3,N
1638680635.8,286047004.4,N
1638680655.6,286047003.4,N
1638680675.4,286047004.0,N
1638680695.3,286047004.0,N
1638680715.1,286047001.5,N
1638680735.8,286047001.5,N
1638680755.7,286047001.5,N
1638680775.5,286047004.3,Y
1638680795.4,286046998.4,P
1638680815.2,286046999.1,N
1638680835.0,286046998.3,N
1638680835.9,286046998.3,N
1638680855.8,286046998.8,N
1638680875.6,286046999.6,N
1638680895.5,286046996.6,N
1638680915.3,286046998.4,N
1638680935.1,286046996.5,N
1638680955.9,286046999.4,N
1638680975.7,286046999.3,N
1638680995.5,286046997.5,N
1638681015.4,286046996.5,N
1638681035.2,286046999.3,N
1638681055.1,286046998.7,N
1638681056.0,286046998.7,N
1638681075.8,286046999.0,N
1638681095.6,286046999.2,N
1638681115.5,286046999.2,N
1638681135.3,286046997.3,N
1638681155.1,286046996.5,N
1638681175.9,286046999.1,N
1638681195.7,286046999.2,N
1638681215.6,286046999.2,N
1638681235.4,286046997.5,N
1638681255.2,286046999.0,N
1638681275.1,286046998.8,N
1638681276.0,286046998.8,N
1638681295.8,286047001.0,N
1638681315.7,286046999.4,N
1638681335.5,286046999.4,N
1638681355.3,286046997.0,N
1638681375.2,286046997.0,N
1638681395.9,286046998.2,N
1638681415.7,286047001.2,N
1638681435.6,286046998.9,N
1638681455.4,286047000.7,N
1638681475.2,286047000.8,N
1638681495.1,286046999.2,N
1638681496.0,286046999.2,N
1638681515.8,286046998.4,N
1638681535.7,286046999.1,N
1638681555.5,286046996.8,N
1638681575.3,286046999.6,N
1638681595.2,286046999.1,N
1638681615.0,286046998.6,N
1638681615.9,286046998.6,N
1638681635.8,286046999.1,N
1638681655.6,286046996.9,N
1638681675.4,286046997.0,N
1638681695.3,286046999.4,N
1638681715.1,286046996.9,N
1638681735.8,286046997.5,N
1638681755.7,286046997.3,N
1638681775.5,286046996.9,N
1638681795.4,286046996.5,N
1638681815.2,286046999.0,N
1638681835.0,286046996.6,N
1638681835.9,286046996.6,N
1638681855.8,286046999.2,N
1638681875.6,286046997.2,N
1638681895.4,286046997.8,N
1638681915.3,286046997.0,N
1638681935.1,286046998.2,N
1638681955.9,286047000.8,N
1638681975.7,286047002.7,N
1638681995.5,286047000.3,N
1638682015.4,286047001.2,N
1638682035.2,286046997.1,N
1638682055.0,286046997.3,N
1638682055.9,286046997.3,N
1638682075.8,286046996.8,N
1638682095.6,286046999.6,N
1638682115.5,286046998.5,N
1638682135.3,286047000.8,N
1638682155.2,286046998.4,N
1638682175.9,286046998.2,N
1638682195.7,286047001.0,N
1638682215.6,286047001.0,N
1638682235.4,286046999.1,N
1638682255.2,286046999.0,N
1638682275.1,286046998.7,N
1638682276.0,286046998.7,N
1638682295.8,286046999.9,N
1638682315.7,286047002.4,N
1638682335.5,286047002.7,N
1638682355.3,286046999.7,N
1638682375.2,286047000.3,N
1638682395.0,286047000.2,N
1638682395.9,286047000.2,N
1638682415.7,286047000.0,N
1638682435.6,286047001.0,N
1638682455.4,286046999.7,N
1638682475.3,286047002.5,N
1638682495.1,286047002.8,N
1638682496.0,286047002.8,N
1638682515.8,286047002.7,N
1638682535.7,286047002.7,N
1638682555.5,286047000.0,N
1638682575.3,286047002.8,N
1638682595.2,286047000.0,N
1638682615.0,286047001.2,N
1638682615.9,286047001.2,N
1638682635.8,286047000.8,N
1638682655.6,286047001.2,N
1638682675.4,286047000.8,N
1638682695.3,286046998.7,N
1638682715.1,286046998.5,N
1638682735.9,286046999.1,N
1638682755.7,286046999.5,N
1638682775.5,286046998.8,N
1638682795.4,286046998.3,N
1638682815.2,286046998.2,N
1638682835.1,286046998.2,N
1638682836.0,286046998.2,N
1638682855.8,286046998.7,N
1638682875.6,286047001.2,N
1638682895.5,286046999.4,N
1638682915.3,286046998.5,N
1638682935.1,286046998.6,N
1638682955.9,286047001.2,N
1638682975.7,286047000.4,N
1638682995.6,286047001.2,N
1638683015.4,286047000.4,N
1638683035.2,286047000.0,N
1638683055.1,286046998.2,N
1638683056.0,286046998.2,N
1638683075.8,286047000.6,N
1638683095.7,286047000.0,N
1638683115.5,286047000.0,N
1638683135.3,286047002.7,N
1638683155.2,286047002.2,N
1638683175.0,286046999.7,N
1638683175.9,286046999.7,N
1638683195.8,286047002.6,N
1638683215.6,286047002.5,N
1638683235.4,286047004.3,Y
1638683255.3,286047001.4,P
1638683275.1,286047003.5,P
1638683295.8,286047003.9,N
1638683315.7,286047001.5,N
1638683335.5,286046999.8,N
1638683355.4,286046999.8,N
1638683375.2,286046999.8,N
1638683395.0,286047000.2,N
1638683395.9,286047000.2,N
1638683415.8,286047000.0,N
1638683435.6,286046999.9,N
1638683455.5,286047000.3,N
1638683475.3,286046999.7,N
1638683495.1,286047004.2,Y
1638683515.9,286047004.4,P
1638683535.7,286047001.8,N
1638683555.6,286047001.3,N
1638683575.4,286047002.4,N
1638683595.2,286047002.4,N
1638683615.1,286047002.2,N
1638683616.0,286047002.2,N
1638683635.8,286047002.3,N
1638683655.6,286047000.4,N
1638683675.5,286047002.4,N
1638683695.3,286047002.4,N
1638683715.2,286047002.8,N
1638683735.9,286047002.0,N
1638683755.7,286047002.8,Y
1638683775.6,286047000.8,P
1638683795.4,286046998.3,N
1638683815.2,286046996.6,N
1638683835.1,286046999.1,N
1638683836.0,286046999.1,N
1638683855.8,286046998.1,N
1638683875.7,286047001.0,N
1638683895.5,286046999.2,N
1638683915.3,286046997.1,N
1638683935.2,286046999.6,N
1638683955.0,286046996.8,N
1638683955.9,286046996.8,N
1638683975.8,286046999.6,N
1638683995.6,286046996.8,N
